| time (UTC) | temp C | wind direction | speed KPH | gust KPH | rain 1hr cm | rain 24hr cm | rain mn cm | humidity % | barometer mb |
| 20260505181510 | 20 | 197 | 11.3 | 20.9 | 0.00 | 0.05 | 0.05 | 63 | 1003.5 |
| 20260505181008 | 20 | 266 | 16.1 | 27.4 | 0.00 | 0.05 | 0.05 | 61 | 1003.7 |
| 20260505180503 | 20 | 252 | 11.3 | 25.7 | 0.00 | 0.05 | 0.05 | 61 | 1003.6 |
| 20260505180001 | 20 | 269 | 19.3 | 27.4 | 0.00 | 0.05 | 0.05 | 60 | 1004.0 |
| 20260505175456 | 20 | 287 | 16.1 | 25.7 | 0.00 | 0.05 | 0.05 | 61 | 1003.7 |
| 20260505174954 | 20 | 232 | 11.3 | 22.5 | 0.00 | 0.05 | 0.05 | 61 | 1003.9 |
| 20260505174451 | 20 | 242 | 14.5 | 29.0 | 0.00 | 0.05 | 0.05 | 62 | 1003.9 |
| 20260505173947 | 20 | 227 | 22.5 | 35.4 | 0.00 | 0.05 | 0.05 | 60 | 1003.7 |
| 20260505173443 | 20 | 329 | 19.3 | 35.4 | 0.00 | 0.05 | 0.05 | 62 | 1003.6 |
| 20260505172940 | 20 | 215 | 11.3 | 22.5 | 0.00 | 0.05 | 0.05 | 61 | 1003.6 |
| 20260505172439 | 20 | 261 | 20.9 | 33.8 | 0.00 | 0.05 | 0.05 | 61 | 1003.4 |
| 20260505171937 | 20 | 224 | 9.7 | 24.1 | 0.00 | 0.05 | 0.05 | 61 | 1003.6 |
| 20260505171435 | 20 | 262 | 11.3 | 29.0 | 0.00 | 0.05 | 0.05 | 62 | 1003.5 |
| 20260505170931 | 20 | 250 | 19.3 | 25.7 | 0.00 | 0.05 | 0.05 | 62 | 1003.5 |
| 20260505170428 | 18 | 222 | 12.9 | 35.4 | 0.00 | 0.05 | 0.05 | 64 | 1003.4 |
| 20260505165924 | 18 | 263 | 8.0 | 33.8 | 0.00 | 0.05 | 0.05 | 64 | 1003.7 |
| 20260505165420 | 18 | 277 | 14.5 | 29.0 | 0.00 | 0.05 | 0.05 | 65 | 1003.3 |
| 20260505164915 | 18 | 273 | 12.9 | 33.8 | 0.00 | 0.05 | 0.05 | 65 | 1003.5 |
| 20260505164412 | 18 | 252 | 12.9 | 20.9 | 0.00 | 0.05 | 0.05 | 66 | 1003.4 |
| 20260505163910 | 18 | 249 | 16.1 | 30.6 | 0.00 | 0.05 | 0.05 | 66 | 1003.6 |
| 20260505163409 | 18 | 318 | 20.9 | 29.0 | 0.00 | 0.05 | 0.05 | 65 | 1003.6 |
| 20260505162908 | 17 | 190 | 16.1 | 38.6 | 0.00 | 0.05 | 0.05 | 66 | 1003.9 |
| 20260505162403 | 17 | 216 | 12.9 | 33.8 | 0.00 | 0.05 | 0.05 | 67 | 1003.9 |
| 20260505161900 | 17 | 297 | 17.7 | 29.0 | 0.00 | 0.05 | 0.05 | 66 | 1003.8 |
| 20260505161357 | 17 | 273 | 14.5 | 33.8 | 0.00 | 0.05 | 0.05 | 66 | 1003.7 |
| 20260505160854 | 18 | 273 | 11.3 | 30.6 | 0.00 | 0.05 | 0.05 | 65 | 1003.6 |
| 20260505160352 | 18 | 255 | 12.9 | 25.7 | 0.00 | 0.05 | 0.05 | 65 | 1003.3 |
| 20260505153331 | 18 | 253 | 14.5 | 17.7 | 0.00 | 0.05 | 0.05 | 65 | 1002.7 |
| 20260505152829 | 18 | 197 | 17.7 | 37.0 | 0.00 | 0.05 | 0.05 | 65 | 1002.6 |
| 20260505152326 | 18 | 228 | 8.0 | 25.7 | 0.00 | 0.05 | 0.05 | 64 | 1002.6 |
| 20260505151825 | 18 | 200 | 9.7 | 24.1 | 0.00 | 0.05 | 0.05 | 65 | 1002.5 |
| 20260505151322 | 17 | 238 | 17.7 | 25.7 | 0.00 | 0.05 | 0.05 | 66 | 1002.3 |
| 20260505150819 | 17 | 213 | 8.0 | 16.1 | 0.00 | 0.05 | 0.05 | 67 | 1002.6 |
| 20260505150316 | 17 | 269 | 9.7 | 14.5 | 0.00 | 0.05 | 0.05 | 67 | 1002.6 |
| 20260505140240 | 19 | 201 | 14.5 | 22.5 | 0.00 | 0.05 | 0.05 | 64 | 1001.6 |
| 20260505130204 | 17 | 190 | 14.5 | 33.8 | 0.00 | 0.05 | 0.05 | 69 | 1001.4 |
| 20260505124654 | 16 | 158 | 25.7 | 33.8 | 0.00 | 0.05 | 0.05 | 70 | 1001.3 |
| 20260505124151 | 16 | 197 | 11.3 | 27.4 | 0.00 | 0.05 | 0.05 | 72 | 1001.1 |
| 20260505123647 | 16 | 144 | 11.3 | 22.5 | 0.00 | 0.05 | 0.05 | 72 | 1001.1 |
| 20260505123144 | 16 | 181 | 11.3 | 29.0 | 0.00 | 0.05 | 0.05 | 73 | 1001.4 |
| 20260505122640 | 16 | 170 | 9.7 | 22.5 | 0.00 | 0.05 | 0.05 | 73 | 1001.2 |
| 20260505122138 | 16 | 162 | 17.7 | 30.6 | 0.00 | 0.05 | 0.05 | 72 | 1001.5 |
| 20260505121634 | 16 | 165 | 11.3 | 30.6 | 0.00 | 0.05 | 0.05 | 73 | 1001.2 |
| 20260505121131 | 16 | 177 | 14.5 | 24.1 | 0.00 | 0.05 | 0.05 | 74 | 1001.4 |
| 20260505120627 | 16 | 204 | 9.7 | 27.4 | 0.00 | 0.05 | 0.05 | 75 | 1001.3 |
| 20260505120123 | 16 | 181 | 22.5 | 27.4 | 0.00 | 0.05 | 0.05 | 74 | 1001.3 |
| 20260505115617 | 15 | 175 | 12.9 | 22.5 | 0.00 | 0.05 | 0.05 | 75 | 1001.5 |
| 20260505115115 | 15 | 185 | 11.3 | 24.1 | 0.00 | 0.05 | 0.05 | 75 | 1001.4 |
| 20260505114612 | 15 | 166 | 12.9 | 27.4 | 0.00 | 0.05 | 0.05 | 76 | 1001.4 |
| 20260505114108 | 15 | 162 | 19.3 | 22.5 | 0.00 | 0.05 | 0.05 | 78 | 1001.3 |
| 20260505113605 | 15 | 159 | 12.9 | 24.1 | 0.00 | 0.05 | 0.05 | 78 | 1001.4 |
| 20260505113102 | 15 | 171 | 12.9 | 25.7 | 0.00 | 0.05 | 0.05 | 79 | 1001.2 |
| 20260505112558 | 15 | 226 | 16.1 | 24.1 | 0.00 | 0.05 | 0.05 | 80 | 1001.4 |
| 20260505112056 | 14 | 167 | 11.3 | 30.6 | 0.00 | 0.05 | 0.05 | 81 | 1001.2 |
| 20260505111555 | 13 | 188 | 20.9 | 29.0 | 0.00 | 0.05 | 0.05 | 81 | 1001.2 |
| 20260505111052 | 14 | 185 | 17.7 | 27.4 | 0.00 | 0.05 | 0.05 | 79 | 1001.3 |
| 20260505110548 | 15 | 156 | 11.3 | 17.7 | 0.00 | 0.05 | 0.05 | 79 | 1001.0 |
| 20260505102021 | 13 | 184 | 17.7 | 22.5 | 0.00 | 0.05 | 0.05 | 80 | 1000.9 |
| 20260505101519 | 13 | 172 | 20.9 | 25.7 | 0.00 | 0.05 | 0.05 | 81 | 1000.7 |
| 20260505101015 | 13 | 162 | 12.9 | 22.5 | 0.00 | 0.05 | 0.05 | 84 | 1000.6 |
| 20260505100513 | 13 | 184 | 14.5 | 24.1 | 0.00 | 0.05 | 0.05 | 84 | 1000.6 |
| 20260505100010 | 13 | 202 | 24.1 | 27.4 | 0.00 | 0.05 | 0.05 | 82 | 1000.6 |
| 20260505095505 | 13 | 146 | 12.9 | 27.4 | 0.00 | 0.05 | 0.05 | 84 | 1000.4 |
| 20260505095001 | 12 | 152 | 14.5 | 20.9 | 0.00 | 0.05 | 0.05 | 86 | 1000.6 |
| 20260505094458 | 12 | 190 | 12.9 | 17.7 | 0.00 | 0.05 | 0.05 | 87 | 1000.6 |
| 20260505093954 | 12 | 188 | 14.5 | 16.1 | 0.00 | 0.05 | 0.05 | 89 | 1000.6 |
| 20260505093451 | 12 | 156 | 11.3 | 20.9 | 0.00 | 0.05 | 0.05 | 88 | 1000.7 |
| 20260505092949 | 12 | 183 | 14.5 | 17.7 | 0.00 | 0.05 | 0.05 | 88 | 1000.7 |
| 20260505092446 | 12 | 144 | 9.7 | 20.9 | 0.00 | 0.05 | 0.05 | 88 | 1001.0 |
| 20260505091943 | 12 | 187 | 9.7 | 17.7 | 0.00 | 0.05 | 0.05 | 88 | 1000.7 |
| 20260505091441 | 13 | 184 | 9.7 | 20.9 | 0.00 | 0.05 | 0.05 | 87 | 1000.9 |
| 20260505090939 | 13 | 163 | 16.1 | 22.5 | 0.00 | 0.05 | 0.05 | 85 | 1001.1 |
| 20260505090437 | 13 | 167 | 14.5 | 20.9 | 0.00 | 0.05 | 0.05 | 86 | 1000.8 |
| 20260505085934 | 13 | 156 | 12.9 | 22.5 | 0.00 | 0.05 | 0.05 | 87 | 1000.9 |
| 20260505085432 | 13 | 169 | 9.7 | 20.9 | 0.00 | 0.05 | 0.05 | 87 | 1001.0 |
| 20260505084930 | 13 | 186 | 11.3 | 16.1 | 0.00 | 0.05 | 0.05 | 86 | 1001.0 |
| 20260505084428 | 13 | 185 | 14.5 | 16.1 | 0.00 | 0.05 | 0.05 | 85 | 1000.9 |
| 20260505083925 | 13 | 161 | 8.0 | 14.5 | 0.00 | 0.05 | 0.05 | 84 | 1001.0 |
| 20260505083423 | 14 | 158 | 8.0 | 20.9 | 0.00 | 0.05 | 0.05 | 82 | 1000.9 |
| 20260505082918 | 14 | 189 | 8.0 | 17.7 | 0.00 | 0.05 | 0.05 | 82 | 1001.5 |
| 20260505082414 | 14 | 197 | 14.5 | 20.9 | 0.00 | 0.05 | 0.05 | 80 | 1001.1 |
| 20260505081912 | 14 | 209 | 11.3 | 17.7 | 0.00 | 0.05 | 0.05 | 80 | 1001.3 |
| 20260505081408 | 15 | 210 | 8.0 | 14.5 | 0.00 | 0.05 | 0.05 | 80 | 1001.3 |
| 20260505080905 | 14 | 201 | 9.7 | 17.7 | 0.00 | 0.05 | 0.05 | 80 | 1001.2 |
| 20260505080401 | 14 | 197 | 11.3 | 22.5 | 0.00 | 0.05 | 0.05 | 79 | 1001.3 |
| 20260505075857 | 14 | 203 | 19.3 | 29.0 | 0.00 | 0.05 | 0.05 | 79 | 1001.4 |
| 20260505075353 | 15 | 203 | 14.5 | 20.9 | 0.00 | 0.05 | 0.05 | 79 | 1001.4 |
| 20260505074851 | 14 | 169 | 9.7 | 22.5 | 0.00 | 0.05 | 0.05 | 77 | 1001.5 |
| 20260505074348 | 14 | 184 | 6.4 | 14.5 | 0.00 | 0.05 | 0.05 | 78 | 1001.5 |
| 20260505073845 | 14 | 168 | 8.0 | 14.5 | 0.00 | 0.05 | 0.05 | 78 | 1001.5 |
| 20260505073343 | 14 | 193 | 9.7 | 14.5 | 0.00 | 0.05 | 0.05 | 78 | 1001.6 |
| 20260505072840 | 14 | 172 | 9.7 | 14.5 | 0.00 | 0.05 | 0.05 | 77 | 1001.6 |
| 20260505072336 | 14 | 208 | 11.3 | 20.9 | 0.00 | 0.05 | 0.05 | 77 | 1001.7 |
| 20260505071832 | 14 | 197 | 9.7 | 16.1 | 0.00 | 0.05 | 0.05 | 77 | 1001.6 |
| 20260505071328 | 14 | 177 | 8.0 | 14.5 | 0.00 | 0.05 | 0.05 | 76 | 1001.7 |
| 20260505070827 | 15 | 188 | 12.9 | 17.7 | 0.00 | 0.05 | 0.05 | 75 | 1001.7 |
| 20260505070323 | 15 | 184 | 11.3 | 17.7 | 0.00 | 0.05 | 0.05 | 75 | 1001.7 |
| 20260505065818 | 15 | 216 | 11.3 | 22.5 | 0.00 | 0.05 | 0.05 | 75 | 1001.6 |
| 20260505065315 | 15 | 184 | 9.7 | 20.9 | 0.00 | 0.05 | 0.05 | 75 | 1001.7 |
| 20260505064813 | 15 | 183 | 16.1 | 20.9 | 0.00 | 0.05 | 0.05 | 74 | 1001.7 |
| 20260505064309 | 15 | 186 | 14.5 | 30.6 | 0.00 | 0.05 | 0.05 | 74 | 1001.6 |
| 20260505063808 | 15 | 164 | 9.7 | 22.5 | 0.00 | 0.05 | 0.05 | 75 | 1001.6 |
| 20260505063303 | 14 | 215 | 11.3 | 22.5 | 0.00 | 0.05 | 0.05 | 75 | 1001.5 |
| 20260505062800 | 14 | 143 | 12.9 | 24.1 | 0.00 | 0.05 | 0.05 | 75 | 1001.6 |
| 20260505062258 | 14 | 172 | 14.5 | 16.1 | 0.00 | 0.05 | 0.05 | 76 | 1001.3 |
| 20260505061754 | 14 | 200 | 19.3 | 22.5 | 0.00 | 0.05 | 0.05 | 74 | 1001.3 |
| 20260505061252 | 14 | 164 | 17.7 | 25.7 | 0.00 | 0.05 | 0.05 | 75 | 1001.4 |
| 20260505060749 | 14 | 156 | 19.3 | 24.1 | 0.00 | 0.05 | 0.05 | 75 | 1001.2 |
| 20260505060247 | 14 | 172 | 14.5 | 20.9 | 0.00 | 0.05 | 0.05 | 77 | 1001.4 |
| 20260505055742 | 15 | 183 | 14.5 | 20.9 | 0.00 | 0.05 | 0.05 | 76 | 1001.4 |
| 20260505055238 | 14 | 182 | 11.3 | 17.7 | 0.13 | 0.05 | 0.05 | 78 | 1001.4 |
| 20260505054736 | 13 | 203 | 14.5 | 20.9 | 0.30 | 0.05 | 0.05 | 83 | 1001.6 |
| 20260505054233 | 13 | 162 | 12.9 | 27.4 | 0.18 | 0.03 | 0.03 | 85 | 1001.5 |
| 20260505053732 | 15 | 146 | 17.7 | 29.0 | 0.00 | 0.00 | 0.00 | 73 | 1001.7 |
| 20260505053227 | 15 | 186 | 20.9 | 29.0 | 0.00 | 0.00 | 0.00 | 65 | 1001.2 |
| 20260505052725 | 15 | 191 | 11.3 | 20.9 | 0.00 | 0.00 | 0.00 | 57 | 1001.7 |
| 20260505052222 | 15 | 172 | 14.5 | 20.9 | 0.00 | 0.00 | 0.00 | 56 | 1001.7 |
| 20260505051719 | 15 | 176 | 9.7 | 14.5 | 0.00 | 0.00 | 0.00 | 55 | 1001.8 |
| 20260505051217 | 15 | 170 | 8.0 | 16.1 | 0.00 | 0.00 | 0.00 | 55 | 1001.7 |
| 20260505050714 | 14 | 196 | 12.9 | 14.5 | 0.00 | 0.00 | 0.00 | 55 | 1001.7 |
| 20260505050213 | 15 | 148 | 11.3 | 16.1 | 0.00 | 0.00 | 0.00 | 55 | 1001.9 |
| 20260505041648 | 12 | 161 | 9.7 | 14.5 | 0.00 | 0.00 | 0.00 | 61 | 1001.7 |
| 20260505041146 | 12 | 172 | 12.9 | 17.7 | 0.00 | 0.00 | 0.00 | 60 | 1001.9 |
| 20260505040643 | 13 | 167 | 8.0 | 16.1 | 0.00 | 0.00 | 0.00 | 60 | 1001.9 |
| 20260505040140 | 12 | 146 | 11.3 | 17.7 | 0.00 | 0.03 | 0.03 | 60 | 1001.8 |
| 20260505035636 | 12 | 193 | 12.9 | 16.1 | 0.00 | 0.03 | 0.03 | 62 | 1002.1 |
| 20260505035132 | 12 | 155 | 12.9 | 16.1 | 0.00 | 0.03 | 0.03 | 61 | 1002.1 |
| 20260505034629 | 12 | 181 | 11.3 | 16.1 | 0.00 | 0.03 | 0.03 | 62 | 1002.2 |
| 20260505034126 | 12 | 165 | 12.9 | 14.5 | 0.00 | 0.03 | 0.03 | 61 | 1002.2 |
| 20260505033623 | 12 | 149 | 14.5 | 16.1 | 0.00 | 0.03 | 0.03 | 61 | 1002.1 |
| 20260505033122 | 12 | 170 | 11.3 | 16.1 | 0.00 | 0.03 | 0.03 | 62 | 1002.2 |
| 20260505032619 | 12 | 186 | 14.5 | 16.1 | 0.00 | 0.03 | 0.03 | 63 | 1002.2 |
| 20260505032115 | 11 | 178 | 11.3 | 14.5 | 0.00 | 0.03 | 0.03 | 65 | 1002.5 |
| 20260505031613 | 11 | 170 | 9.7 | 14.5 | 0.00 | 0.03 | 0.03 | 68 | 1002.5 |
| 20260505031108 | 11 | 165 | 11.3 | 14.5 | 0.00 | 0.03 | 0.03 | 68 | 1002.5 |
| 20260505030606 | 11 | 175 | 11.3 | 11.3 | 0.00 | 0.03 | 0.03 | 68 | 1002.5 |
| 20260505025557 | 12 | 179 | 16.1 | 20.9 | 0.00 | 0.03 | 0.03 | 64 | 1002.6 |
| 20260505025056 | 12 | 181 | 9.7 | 12.9 | 0.00 | 0.03 | 0.03 | 61 | 1002.6 |
| 20260505024553 | 12 | 168 | 9.7 | 17.7 | 0.00 | 0.03 | 0.03 | 59 | 1002.6 |
| 20260505024050 | 13 | 150 | 9.7 | 16.1 | 0.00 | 0.03 | 0.03 | 58 | 1002.6 |
| 20260505023547 | 12 | 169 | 11.3 | 12.9 | 0.00 | 0.03 | 0.03 | 59 | 1002.6 |
| 20260505023045 | 13 | 165 | 9.7 | 14.5 | 0.00 | 0.03 | 0.03 | 58 | 1002.7 |
| 20260505022542 | 13 | 150 | 9.7 | 14.5 | 0.00 | 0.03 | 0.03 | 57 | 1002.7 |
| 20260505022039 | 13 | 163 | 11.3 | 14.5 | 0.00 | 0.03 | 0.03 | 57 | 1002.7 |
| 20260505021536 | 13 | 148 | 11.3 | 14.5 | 0.00 | 0.03 | 0.03 | 55 | 1002.8 |
| 20260505021033 | 13 | 166 | 9.7 | 12.9 | 0.00 | 0.03 | 0.03 | 55 | 1002.6 |
| 20260505020532 | 13 | 152 | 11.3 | 14.5 | 0.00 | 0.03 | 0.03 | 55 | 1002.8 |
| 20260505020029 | 13 | 167 | 9.7 | 14.5 | 0.00 | 0.03 | 0.03 | 54 | 1002.8 |
| 20260505015526 | 13 | 162 | 8.0 | 14.5 | 0.00 | 0.03 | 0.03 | 55 | 1002.9 |
| 20260505015023 | 14 | 183 | 9.7 | 11.3 | 0.00 | 0.03 | 0.03 | 54 | 1002.8 |
| 20260505014520 | 14 | 166 | 8.0 | 11.3 | 0.00 | 0.03 | 0.03 | 53 | 1002.9 |
| 20260505014018 | 15 | 178 | 6.4 | 14.5 | 0.00 | 0.03 | 0.03 | 53 | 1002.7 |
| 20260505013514 | 14 | 178 | 4.8 | 11.3 | 0.00 | 0.03 | 0.03 | 53 | 1002.9 |
| 20260505013012 | 15 | 190 | 6.4 | 11.3 | 0.00 | 0.03 | 0.03 | 52 | 1002.9 |
| 20260505012510 | 15 | 168 | 6.4 | 12.9 | 0.00 | 0.03 | 0.03 | 52 | 1003.0 |
| 20260505012006 | 15 | 202 | 4.8 | 11.3 | 0.00 | 0.03 | 0.03 | 52 | 1002.9 |
| 20260505011502 | 15 | 180 | 11.3 | 14.5 | 0.00 | 0.03 | 0.03 | 51 | 1002.8 |
| 20260505010959 | 15 | 175 | 9.7 | 12.9 | 0.00 | 0.03 | 0.03 | 51 | 1002.9 |
| 20260505010455 | 15 | 201 | 6.4 | 9.7 | 0.00 | 0.03 | 0.03 | 51 | 1002.8 |
| 20260505005951 | 15 | 165 | 8.0 | 11.3 | 0.00 | 0.03 | 0.03 | 51 | 1002.9 |
| 20260505005448 | 15 | 177 | 6.4 | 11.3 | 0.00 | 0.03 | 0.03 | 52 | 1002.9 |
| 20260505004946 | 15 | 174 | 6.4 | 11.3 | 0.00 | 0.03 | 0.03 | 52 | 1002.9 |
| 20260505004442 | 15 | 164 | 6.4 | 11.3 | 0.00 | 0.03 | 0.03 | 53 | 1002.8 |
| 20260505003939 | 15 | 163 | 8.0 | 12.9 | 0.00 | 0.03 | 0.03 | 52 | 1002.9 |
| 20260505003436 | 15 | 169 | 6.4 | 11.3 | 0.00 | 0.03 | 0.03 | 52 | 1002.9 |
| 20260505002932 | 15 | 172 | 11.3 | 16.1 | 0.00 | 0.03 | 0.03 | 51 | 1002.7 |
| 20260505002428 | 15 | 159 | 6.4 | 12.9 | 0.00 | 0.03 | 0.03 | 52 | 1003.0 |
| 20260505001927 | 16 | 180 | 6.4 | 11.3 | 0.00 | 0.03 | 0.03 | 52 | 1002.8 |
| 20260505001424 | 16 | 201 | 6.4 | 12.9 | 0.00 | 0.03 | 0.03 | 51 | 1002.7 |
| 20260505000921 | 16 | 177 | 6.4 | 17.7 | 0.00 | 0.03 | 0.03 | 51 | 1002.9 |
| 20260505000420 | 16 | 183 | 6.4 | 17.7 | 0.00 | 0.03 | 0.03 | 51 | 1003.0 |
| 20260504235916 | 16 | 196 | 6.4 | 12.9 | 0.00 | 0.03 | 0.03 | 51 | 1002.9 |
| 20260504235413 | 16 | 151 | 8.0 | 16.1 | 0.00 | 0.03 | 0.03 | 50 | 1002.9 |
| 20260504234909 | 16 | 222 | 8.0 | 14.5 | 0.00 | 0.03 | 0.03 | 50 | 1002.6 |
| 20260504234407 | 16 | 210 | 17.7 | 24.1 | 0.00 | 0.03 | 0.03 | 49 | 1002.8 |
| 20260504233903 | 17 | 156 | 9.7 | 12.9 | 0.00 | 0.03 | 0.03 | 49 | 1002.8 |
| 20260504233359 | 17 | 186 | 8.0 | 20.9 | 0.00 | 0.03 | 0.03 | 50 | 1002.8 |
| 20260504232855 | 17 | 180 | 9.7 | 12.9 | 0.00 | 0.03 | 0.03 | 50 | 1002.8 |
| 20260504232353 | 17 | 167 | 6.4 | 9.7 | 0.00 | 0.03 | 0.03 | 50 | 1003.0 |
| 20260504231849 | 17 | 204 | 16.1 | 20.9 | 0.00 | 0.03 | 0.03 | 50 | 1002.9 |
| 20260504231346 | 17 | 169 | 6.4 | 12.9 | 0.00 | 0.03 | 0.03 | 50 | 1002.9 |
| 20260504230842 | 17 | 212 | 9.7 | 16.1 | 0.00 | 0.03 | 0.03 | 49 | 1002.8 |
| 20260504230340 | 17 | 187 | 14.5 | 16.1 | 0.00 | 0.03 | 0.03 | 48 | 1002.9 |
| 20260504225839 | 17 | 193 | 6.4 | 20.9 | 0.00 | 0.03 | 0.03 | 49 | 1002.8 |
| 20260504225335 | 18 | 180 | 8.0 | 11.3 | 0.00 | 0.03 | 0.03 | 49 | 1002.9 |
| 20260504224833 | 18 | 205 | 6.4 | 14.5 | 0.00 | 0.03 | 0.03 | 47 | 1002.7 |
| 20260504224329 | 18 | 205 | 9.7 | 11.3 | 0.00 | 0.03 | 0.03 | 48 | 1002.8 |
| 20260504223826 | 18 | 197 | 8.0 | 14.5 | 0.00 | 0.03 | 0.03 | 48 | 1002.9 |
| 20260504223321 | 18 | 157 | 8.0 | 17.7 | 0.00 | 0.03 | 0.03 | 48 | 1003.0 |
| 20260504222818 | 20 | 265 | 12.9 | 20.9 | 0.00 | 0.03 | 0.03 | 45 | 1002.9 |
| 20260504222315 | 20 | 197 | 9.7 | 17.7 | 0.00 | 0.03 | 0.03 | 45 | 1002.8 |
| 20260504221814 | 20 | 238 | 8.0 | 17.7 | 0.00 | 0.03 | 0.03 | 44 | 1002.8 |
| 20260504221310 | 20 | 173 | 3.2 | 22.5 | 0.00 | 0.03 | 0.03 | 48 | 1003.0 |
| 20260504220807 | 20 | 186 | 14.5 | 17.7 | 0.00 | 0.03 | 0.03 | 44 | 1003.0 |
| 20260504220303 | 20 | 185 | 8.0 | 17.7 | 0.00 | 0.03 | 0.03 | 44 | 1003.0 |
| 20260504215801 | 21 | 209 | 6.4 | 17.7 | 0.00 | 0.03 | 0.03 | 45 | 1003.0 |
| 20260504215257 | 20 | 166 | 9.7 | 14.5 | 0.00 | 0.03 | 0.03 | 45 | 1003.1 |
| 20260504214753 | 21 | 190 | 4.8 | 22.5 | 0.00 | 0.03 | 0.03 | 43 | 1003.0 |
| 20260504214250 | 20 | 221 | 8.0 | 14.5 | 0.00 | 0.03 | 0.03 | 44 | 1003.0 |
| 20260504213747 | 21 | 251 | 11.3 | 17.7 | 0.00 | 0.03 | 0.03 | 43 | 1003.0 |
| 20260504213243 | 21 | 226 | 12.9 | 16.1 | 0.00 | 0.03 | 0.03 | 43 | 1003.1 |
| 20260504212740 | 21 | 168 | 3.2 | 12.9 | 0.00 | 0.03 | 0.03 | 45 | 1003.1 |
| 20260504212236 | 21 | 226 | 6.4 | 16.1 | 0.00 | 0.03 | 0.03 | 45 | 1003.2 |
| 20260504211734 | 21 | 184 | 6.4 | 16.1 | 0.00 | 0.03 | 0.03 | 44 | 1003.1 |
| 20260504211230 | 21 | 177 | 6.4 | 16.1 | 0.00 | 0.03 | 0.03 | 44 | 1003.2 |
| 20260504210728 | 21 | 194 | 8.0 | 22.5 | 0.00 | 0.03 | 0.03 | 46 | 1003.2 |
| 20260504210225 | 21 | 200 | 8.0 | 12.9 | 0.00 | 0.03 | 0.03 | 46 | 1003.1 |
| 20260504205722 | 20 | 198 | 6.4 | 16.1 | 0.00 | 0.03 | 0.03 | 46 | 1003.2 |
| 20260504205220 | 20 | 264 | 8.0 | 17.7 | 0.00 | 0.03 | 0.03 | 46 | 1003.1 |
| 20260504204718 | 20 | 226 | 16.1 | 27.4 | 0.00 | 0.03 | 0.03 | 46 | 1003.5 |
| 20260504204216 | 20 | 227 | 8.0 | 16.1 | 0.00 | 0.03 | 0.03 | 46 | 1003.5 |
| 20260504203715 | 20 | 276 | 9.7 | 24.1 | 0.00 | 0.03 | 0.03 | 46 | 1003.5 |
| 20260504203212 | 20 | 199 | 14.5 | 22.5 | 0.00 | 0.03 | 0.03 | 46 | 1003.5 |
| 20260504202712 | 20 | 220 | 9.7 | 22.5 | 0.00 | 0.03 | 0.03 | 47 | 1003.8 |
| 20260504202209 | 20 | 222 | 6.4 | 24.1 | 0.00 | 0.03 | 0.03 | 46 | 1003.8 |
| 20260504201706 | 20 | 281 | 6.4 | 29.0 | 0.00 | 0.03 | 0.03 | 45 | 1003.8 |
| 20260504201204 | 21 | 225 | 9.7 | 29.0 | 0.00 | 0.03 | 0.03 | 45 | 1003.8 |
| 20260504200701 | 20 | 259 | 9.7 | 14.5 | 0.00 | 0.03 | 0.03 | 45 | 1003.5 |
| 20260504200157 | 20 | 197 | 12.9 | 20.9 | 0.00 | 0.03 | 0.03 | 45 | 1003.8 |
| 20260504195654 | 21 | 172 | 8.0 | 16.1 | 0.00 | 0.03 | 0.03 | 44 | 1003.8 |
| 20260504195149 | 20 | 191 | 9.7 | 17.7 | 0.00 | 0.03 | 0.03 | 45 | 1004.0 |
| 20260504194646 | 21 | 254 | 12.9 | 27.4 | 0.00 | 0.03 | 0.03 | 45 | 1004.0 |
| 20260504194142 | 20 | 99 | 9.7 | 22.5 | 0.00 | 0.03 | 0.03 | 46 | 1004.0 |
| 20260504193639 | 21 | 197 | 14.5 | 20.9 | 0.00 | 0.03 | 0.03 | 43 | 1004.1 |
| 20260504193137 | 20 | 255 | 9.7 | 14.5 | 0.00 | 0.03 | 0.03 | 44 | 1004.2 |
| 20260504192635 | 21 | 219 | 16.1 | 25.7 | 0.00 | 0.03 | 0.03 | 44 | 1004.2 |
| 20260504192133 | 21 | 235 | 8.0 | 16.1 | 0.00 | 0.03 | 0.03 | 45 | 1004.3 |
| 20260504191631 | 20 | 194 | 17.7 | 24.1 | 0.00 | 0.03 | 0.03 | 46 | 1004.3 |
| 20260504191127 | 21 | 202 | 6.4 | 11.3 | 0.00 | 0.03 | 0.03 | 44 | 1004.4 |
| 20260504190623 | 20 | 203 | 4.8 | 16.1 | 0.00 | 0.03 | 0.03 | 46 | 1004.4 |
| 20260504190120 | 20 | 236 | 11.3 | 27.4 | 0.00 | 0.03 | 0.03 | 46 | 1004.5 |
| 20260504185616 | 20 | 222 | 17.7 | 27.4 | 0.00 | 0.03 | 0.03 | 45 | 1004.6 |
| 20260504185113 | 20 | 124 | 8.0 | 30.6 | 0.00 | 0.03 | 0.03 | 48 | 1004.4 |
| 20260504184609 | 19 | 217 | 14.5 | 24.1 | 0.00 | 0.03 | 0.03 | 47 | 1004.5 |
| 20260504184104 | 20 | 198 | 3.2 | 27.4 | 0.00 | 0.03 | 0.03 | 47 | 1004.5 |
| 20260504183601 | 19 | 193 | 11.3 | 30.6 | 0.00 | 0.03 | 0.03 | 47 | 1004.6 |
| 20260504183059 | 18 | 178 | 8.0 | 27.4 | 0.00 | 0.03 | 0.03 | 47 | 1004.6 |
| 20260504182556 | 19 | 213 | 17.7 | 27.4 | 0.00 | 0.03 | 0.03 | 46 | 1004.7 |
| 20260504182053 | 20 | 206 | 11.3 | 27.4 | 0.00 | 0.03 | 0.03 | 48 | 1004.9 |